Showing default

GRACE-FO 1, 43476

Orbit data source: Space-Track

GRACE-FO 1, 43476 is an American payload satellite in LEO that was launched on Tue, 22 May 2018 UTC via an FALCON 9 launch vehicle from the Air Force Western Test Range (AFWTR). Payload-class satellites include a variety of spacecraft equipped with specific instruments for various scientific and technological missions. These include communications satellites like Starlink; space stations such as the ISS; scientific satellites like the Hubble; Earth observation satellites from companies like Planet Labs, Umbra, and HawkEye 360; GPS; miniature CubeSats for education and research; and military/defense satellites.

Loading next visibility...
Identifier
43476, 2018-047A
Orbit
LEO
Country
Flag of USUS
Related business
Manufacturer
ADS/Bremen
Mission
Operational Civil Science
Bus & Motor
FLEXBUS, N2 AOCS
Mass
600 kg wet, ~500 kg dry
Launch date (UTC)
2018-05-22 (7 years ago)
Launch vehicle
FALCON 9
Launch site
Air Force Western Test Range (AFWTR)
Object type
Payload
Rocket body
Debris
Shape & HBR
Half Hex Poly, 1.6 m
Radar Cross Section
5.603 m², Medium (>0.1 m² and < 1m²)

Expand to show TLE details & history
Last TLE update: 16 hours ago

TLE from 16 hours ago
0 GRACE-FO 1
1 43476U 18047A   25260.22511378  .00004426  00000-0  12773-3 0  9997
2 43476  88.9783 235.5805 0014981  94.3021 265.9945 15.35329672407878
Epoch: 2025-09-17T05:24Z
TLE epoch observation values (Epoch: 2025-09-17T05:24:09.83Z)
Latitude
-0.00002°
Longitude
158.13542°
Altitude
463.889 km
Speed
7.634 km/s
True Right ascension
15h 42m 19s
True Declination
0° 00' 00"
Sunlit
Object was in daylight at epoch
Visualization orbit readout
Latitude
Unknown
Longitude
Unknown
Altitude
Unknown
Speed
Unknown
Apparent Right ascension
Unknown
Apparent Declination
Unknown
Sunlit
N/A
Visualization observer readout
Local Sidereal Time
14:11:02
Azimuth
Unknown
Elevation
Unknown
Doppler factor
Unknown
Orbital elements
Apogee altitude
466.969 km
Perigee altitude
446.49 km
Semi-major axis
6,834.867 km
Eccentricity
0.0015
Inclination
88.9783°
RAAN
235.5805°
Arg. of periapsis
94.3021°
True anomaly
265.82327°
Mean anomaly
265.9945°
Eccentric anomaly
265.90888°
Mean motion
3.84103 °/min
Orbital period
93.72 mins
BSTAR
0.00012773
Loading maneuver chart data...
Computing Atmospheric mass density...
Loading historical data...
Loading historical data...
Loading historical data...
Loading historical data...
Loading historical data...
Loading historical data...
Loading historical data...

Documentation

Showing up to 5 results
|